This is the latest recevied weather packets stored in our database for station/object W0BJ. If no packets are shown the sender has not sent any weather packets the latest 10 day(s).
| Time | Temp. | Humidity | Pressure | Rain* | Wind** | Luminosity | Snow |
|---|---|---|---|---|---|---|---|
| 1778204628 | 14.44° C | 54% | 1016.1 hPa | 0 mm | - | - | - |
| 1778204301 | 14.44° C | 51% | 1016 hPa | 0 mm | - | - | - |
| 1778204027 | 15° C | 50% | 1015.9 hPa | 0 mm | - | - | - |
| 1778203401 | 15.56° C | 48% | 1015.8 hPa | 0 mm | - | - | - |
| 1778202826 | 16.11° C | 45% | 1015.8 hPa | 0 mm | - | - | - |
| 1778202502 | 16.11° C | 44% | 1015.8 hPa | 0 mm | - | - | - |
| 1778202227 | 16.67° C | 43% | 1015.7 hPa | 0 mm | - | - | - |
| 1778201601 | 17.22° C | 41% | 1015.6 hPa | 0 mm | - | - | - |
| 1778201026 | 17.78° C | 40% | 1015.6 hPa | 0 mm | - | - | - |
| 1778200702 | 17.78° C | 40% | 1015.4 hPa | 0 mm | - | - | - |
| 1778200428 | 17.78° C | 39% | 1015.5 hPa | 0 mm | - | - | - |
| 1778199801 | 18.33° C | 38% | 1015.4 hPa | 0 mm | - | - | - |
| 1778199227 | 18.89° C | 37% | 1015.4 hPa | 0 mm | - | - | - |
| 1778198900 | 19.44° C | 38% | 1015.4 hPa | 0 mm | - | - | - |
| 1778198626 | 19.44° C | 37% | 1015.4 hPa | 0 mm | - | - | - |
| 1778198002 | 20° C | 36% | 1015.4 hPa | 0 mm | - | - | - |
| 1778197427 | 20.56° C | 35% | 1015.4 hPa | 0 mm | - | - | - |
| 1778197101 | 20.56° C | 34% | 1015.6 hPa | 0 mm | - | - | - |
| 1778196827 | 20.56° C | 34% | 1015.4 hPa | 0 mm | - | - | - |
| 1778196200 | 20.56° C | 35% | 1015.5 hPa | 0 mm | - | - | - |
| 1778195628 | 20.56° C | 34% | 1015.5 hPa | 0 mm | - | - | - |
| 1778195302 | 21.11° C | 33% | 1015.5 hPa | 0 mm | - | - | - |
| 1778195027 | 21.11° C | 34% | 1015.5 hPa | 0 mm | - | - | - |
| 1778194401 | 21.11° C | 34% | 1015.6 hPa | 0 mm | - | - | - |
| 1778193826 | 21.67° C | 33% | 1015.7 hPa | 0 mm | - | - | - |
* Rain latest hour (hover to see other rain measurements)
** Current wind speed in m/s (hover to see current wind gust speed)